KI6SYE Weather Reports


time (UTC)temp
C
wind
direction
speed
KPH
gust
KPH
rain 1hr
cm
rain 24hr
cm
rain mn
cm
humidity
%
barometer
mb
20260508044008 16 258 11.3 12.9 0.00 0.00 0.00 91 1015.6
20260508043505 16 252 9.7 11.3 0.00 0.00 0.00 91 1015.6
20260508043001 16 268 6.4 8.0 0.00 0.00 0.00 91 1015.6
20260508042459 16 267 6.4 9.7 0.00 0.00 0.00 90 1015.3
20260508041956 16 233 6.4 11.3 0.00 0.00 0.00 91 1015.1
20260508041447 15 199 4.8 8.0 0.00 0.00 0.00 92 1015.4
20260508040944 16 221 3.2 4.8 0.00 0.00 0.00 93 1015.1
20260508040441 16 243 0.0 1.6 0.00 0.00 0.00 93 1015.0
20260508035938 16 265 4.8 8.0 0.00 0.00 0.00 93 1015.2
20260508035435 16 272 4.8 4.8 0.00 0.00 0.00 93 1015.1
20260508034932 16 308 1.6 3.2 0.00 0.00 0.00 92 1014.9
20260508034430 16 336 1.6 1.6 0.00 0.00 0.00 92 1015.0
20260508033926 16 321 1.6 3.2 0.00 0.00 0.00 91 1014.9
20260508033424 16 324 0.0 0.0 0.00 0.00 0.00 90 1014.9
20260508032921 16 307 4.8 4.8 0.00 0.00 0.00 89 1014.6
20260508032419 16 304 0.0 1.6 0.00 0.00 0.00 89 1014.6
20260508031915 16 282 1.6 3.2 0.00 0.00 0.00 89 1014.6
20260508031413 16 296 3.2 3.2 0.00 0.00 0.00 89 1014.5
20260508030908 16 229 1.6 1.6 0.00 0.00 0.00 88 1014.5
20260508030406 16 244 1.6 3.2 0.00 0.00 0.00 88 1014.5
20260508025902 16 271 6.4 8.0 0.00 0.00 0.00 88 1014.4
20260508025359 16 237 3.2 8.0 0.00 0.00 0.00 88 1014.5
20260508024856 16 287 3.2 3.2 0.00 0.00 0.00 88 1014.5
20260508024352 16 238 3.2 4.8 0.00 0.00 0.00 88 1014.1
20260508023849 16 241 6.4 12.9 0.00 0.00 0.00 88 1014.1
20260508023346 16 237 8.0 9.7 0.00 0.00 0.00 86 1014.1
20260508022843 16 219 8.0 11.3 0.00 0.00 0.00 87 1014.0
20260508022338 16 274 6.4 9.7 0.00 0.00 0.00 86 1013.8
20260508021836 16 255 3.2 4.8 0.00 0.00 0.00 87 1014.1
20260508021331 16 242 8.0 11.3 0.00 0.00 0.00 86 1014.1
20260508020827 16 250 12.9 16.1 0.00 0.00 0.00 86 1014.2
20260508020326 16 232 6.4 9.7 0.00 0.00 0.00 87 1014.1
20260508015822 16 303 4.8 8.0 0.00 0.00 0.00 87 1014.0
20260508015314 16 259 9.7 12.9 0.00 0.00 0.00 87 1014.2
20260508014810 17 214 4.8 9.7 0.00 0.00 0.00 85 1014.2
20260508014308 17 263 9.7 11.3 0.00 0.00 0.00 84 1013.8
20260508013803 17 234 4.8 8.0 0.00 0.00 0.00 86 1013.9
20260508013259 17 238 9.7 14.5 0.00 0.00 0.00 85 1013.9
20260508012757 17 278 6.4 8.0 0.00 0.00 0.00 85 1013.7
20260508012254 17 292 4.8 8.0 0.00 0.00 0.00 84 1013.7
20260508011752 17 251 9.7 11.3 0.00 0.00 0.00 84 1013.9
20260508011249 17 308 11.3 14.5 0.00 0.00 0.00 84 1014.1
20260508010746 17 351 3.2 4.8 0.00 0.00 0.00 84 1013.9
20260508010244 17 236 3.2 8.0 0.00 0.00 0.00 85 1013.8
20260508005741 17 274 11.3 12.9 0.00 0.00 0.00 83 1013.8
20260508005238 17 278 9.7 12.9 0.00 0.00 0.00 85 1013.9
20260508004733 17 232 9.7 12.9 0.00 0.00 0.00 84 1013.9
20260508004230 17 276 11.3 12.9 0.00 0.00 0.00 84 1014.0
20260508003726 17 292 11.3 16.1 0.00 0.00 0.00 84 1014.0
20260508003224 17 311 12.9 16.1 0.00 0.00 0.00 83 1014.0
20260508002720 17 234 9.7 14.5 0.00 0.00 0.00 83 1014.1
20260508002218 18 259 4.8 8.0 0.00 0.00 0.00 82 1014.1
20260508001713 17 226 9.7 14.5 0.00 0.00 0.00 83 1014.0
20260508001209 18 231 8.0 9.7 0.00 0.00 0.00 81 1013.9
20260508000705 17 312 4.8 4.8 0.00 0.00 0.00 83 1014.0
20260508000204 17 243 4.8 4.8 0.00 0.00 0.00 83 1014.1
20260507235659 17 321 8.0 14.5 0.00 0.00 0.00 83 1014.0
20260507235157 17 268 8.0 9.7 0.00 0.00 0.00 83 1014.2
20260507234653 17 270 14.5 17.7 0.00 0.00 0.00 85 1014.0
20260507234150 17 233 6.4 12.9 0.00 0.00 0.00 85 1014.1
20260507233647 17 219 11.3 16.1 0.00 0.00 0.00 83 1014.0
20260507233145 17 285 8.0 11.3 0.00 0.00 0.00 84 1014.2
20260507232641 18 282 8.0 9.7 0.00 0.00 0.00 83 1014.1
20260507232139 17 317 8.0 12.9 0.00 0.00 0.00 84 1014.0
20260507231635 18 261 3.2 8.0 0.00 0.00 0.00 83 1014.1
20260507231132 18 286 3.2 4.8 0.00 0.00 0.00 81 1014.0
20260507230628 18 267 9.7 14.5 0.00 0.00 0.00 82 1013.9
20260507230126 18 285 9.7 11.3 0.00 0.00 0.00 81 1014.2
20260507225620 18 216 6.4 9.7 0.00 0.00 0.00 79 1014.0
20260507225117 18 247 17.7 20.9 0.00 0.00 0.00 79 1014.5
20260507224613 18 294 12.9 17.7 0.00 0.00 0.00 79 1014.3
20260507224110 18 263 8.0 11.3 0.00 0.00 0.00 78 1014.2
20260507223606 18 236 11.3 16.1 0.00 0.00 0.00 80 1014.4
20260507223103 18 219 14.5 17.7 0.00 0.00 0.00 80 1014.3
20260507222600 18 247 4.8 8.0 0.00 0.00 0.00 81 1014.7
20260507222056 18 10 3.2 4.8 0.00 0.00 0.00 81 1014.5
20260507221552 18 267 12.9 14.5 0.00 0.00 0.00 81 1014.7
20260507221049 18 227 16.1 20.9 0.00 0.00 0.00 80 1014.8
20260507220547 18 306 8.0 12.9 0.00 0.00 0.00 79 1015.0
20260507220044 17 245 12.9 16.1 0.00 0.00 0.00 82 1014.8
20260507215540 17 267 14.5 16.1 0.00 0.00 0.00 83 1014.8
20260507215038 18 227 19.3 24.1 0.00 0.00 0.00 80 1014.9
20260507214535 18 259 11.3 16.1 0.00 0.00 0.00 79 1014.8
20260507214031 18 225 11.3 16.1 0.00 0.00 0.00 80 1015.1
20260507213527 18 241 17.7 22.5 0.00 0.00 0.00 79 1014.9
20260507213025 18 285 4.8 9.7 0.00 0.00 0.00 79 1015.0
20260507212520 18 246 9.7 16.1 0.00 0.00 0.00 79 1014.9
20260507212017 18 271 16.1 22.5 0.00 0.00 0.00 79 1014.9
20260507211514 18 170 12.9 20.9 0.00 0.00 0.00 81 1014.9
20260507211005 18 340 11.3 14.5 0.00 0.00 0.00 81 1015.2
20260507210502 18 293 11.3 12.9 0.00 0.00 0.00 80 1015.4
20260507205959 18 297 8.0 9.7 0.00 0.00 0.00 80 1015.2
20260507205456 18 250 9.7 12.9 0.00 0.00 0.00 79 1015.6
20260507204952 18 277 4.8 8.0 0.00 0.00 0.00 80 1015.5
20260507204448 17 250 14.5 17.7 0.00 0.00 0.00 82 1015.4
20260507203946 18 292 12.9 16.1 0.00 0.00 0.00 80 1015.4
20260507203444 18 286 12.9 16.1 0.00 0.00 0.00 81 1015.5
20260507202940 17 260 16.1 22.5 0.00 0.00 0.00 82 1015.3
20260507202437 17 210 11.3 14.5 0.00 0.00 0.00 82 1015.4
20260507201932 17 244 11.3 17.7 0.00 0.00 0.00 81 1015.7
20260507201427 18 289 8.0 9.7 0.00 0.00 0.00 81 1015.7
20260507200924 17 261 9.7 17.7 0.00 0.00 0.00 82 1015.5
20260507200420 18 242 4.8 9.7 0.00 0.00 0.00 81 1015.5
20260507195916 18 269 8.0 12.9 0.00 0.00 0.00 81 1015.8
20260507195414 18 306 12.9 16.1 0.00 0.00 0.00 80 1015.6
20260507194911 18 291 9.7 11.3 0.00 0.00 0.00 80 1015.9
20260507194407 18 246 11.3 16.1 0.00 0.00 0.00 80 1015.8
20260507193903 17 256 12.9 16.1 0.00 0.00 0.00 83 1016.0
20260507193401 17 277 14.5 17.7 0.00 0.00 0.00 82 1015.8
20260507192857 18 268 12.9 17.7 0.00 0.00 0.00 80 1016.0
20260507192353 17 247 9.7 11.3 0.00 0.00 0.00 81 1015.9
20260507191850 18 227 9.7 12.9 0.00 0.00 0.00 80 1015.8
20260507191346 17 335 8.0 12.9 0.00 0.00 0.00 81 1016.0
20260507190843 17 175 12.9 16.1 0.00 0.00 0.00 81 1016.2
20260507190341 17 287 4.8 8.0 0.00 0.00 0.00 81 1016.1
20260507185840 17 262 8.0 12.9 0.00 0.00 0.00 81 1016.2
20260507185337 18 305 8.0 9.7 0.00 0.00 0.00 81 1016.3
20260507184833 17 324 4.8 4.8 0.00 0.00 0.00 81 1016.2
20260507184331 17 278 8.0 9.7 0.00 0.00 0.00 82 1016.1
20260507183828 18 260 8.0 12.9 0.00 0.00 0.00 79 1016.3
20260507183325 18 233 6.4 12.9 0.00 0.00 0.00 80 1016.4
20260507182823 18 268 6.4 11.3 0.00 0.00 0.00 80 1016.2
20260507182318 18 292 6.4 8.0 0.00 0.00 0.00 80 1016.2
20260507181815 18 259 8.0 11.3 0.00 0.00 0.00 80 1016.2
20260507181310 18 174 3.2 4.8 0.00 0.00 0.00 80 1016.1
20260507180808 17 272 9.7 12.9 0.00 0.00 0.00 81 1016.4
20260507180304 18 231 4.8 8.0 0.00 0.00 0.00 81 1016.3
20260507175800 17 279 4.8 4.8 0.00 0.00 0.00 81 1016.5
20260507175257 17 273 11.3 14.5 0.00 0.00 0.00 82 1016.5
20260507174754 17 218 8.0 11.3 0.00 0.00 0.00 82 1016.4
20260507174252 17 264 9.7 11.3 0.00 0.00 0.00 82 1016.5
20260507173750 17 246 4.8 4.8 0.00 0.00 0.00 82 1016.5
20260507173247 17 289 11.3 12.9 0.00 0.00 0.00 81 1016.6
20260507172743 17 48 3.2 3.2 0.00 0.00 0.00 82 1016.4
20260507172240 17 210 8.0 11.3 0.00 0.00 0.00 82 1016.4
20260507171735 17 2 4.8 4.8 0.00 0.00 0.00 83 1016.3
20260507171233 17 246 9.7 12.9 0.00 0.00 0.00 82 1016.3
20260507170729 17 305 6.4 8.0 0.00 0.00 0.00 82 1016.4
20260507170226 17 269 8.0 9.7 0.00 0.00 0.00 83 1016.3
20260507165721 17 227 8.0 11.3 0.00 0.00 0.00 83 1016.7
20260507165218 17 254 4.8 8.0 0.00 0.00 0.00 81 1016.5
20260507164714 17 284 4.8 8.0 0.00 0.00 0.00 83 1016.6
20260507164212 17 338 4.8 4.8 0.00 0.00 0.00 82 1016.3
20260507163708 17 250 8.0 9.7 0.00 0.00 0.00 82 1016.6
20260507163206 17 205 4.8 9.7 0.00 0.00 0.00 83 1016.5
20260507162701 16 302 1.6 4.8 0.00 0.00 0.00 84 1016.6
20260507162157 17 245 8.0 9.7 0.00 0.00 0.00 83 1016.6
20260507161654 17 225 1.6 3.2 0.00 0.00 0.00 84 1016.7
20260507161145 16 329 3.2 3.2 0.00 0.00 0.00 84 1016.5
20260507160642 17 278 3.2 3.2 0.00 0.00 0.00 83 1016.7
20260507160138 17 225 1.6 3.2 0.00 0.00 0.00 83 1016.6
20260507155634 16 301 4.8 4.8 0.00 0.00 0.00 84 1016.6
20260507155131 16 280 3.2 3.2 0.00 0.00 0.00 85 1016.5
20260507154627 16 251 4.8 8.0 0.00 0.00 0.00 86 1016.4
20260507154125 16 298 3.2 3.2 0.00 0.00 0.00 87 1016.4
20260507153621 16 310 8.0 9.7 0.00 0.00 0.00 85 1016.5
20260507153118 16 328 1.6 3.2 0.00 0.00 0.00 86 1016.4
20260507152614 16 202 6.4 9.7 0.00 0.00 0.00 86 1016.5
20260507152110 16 238 4.8 4.8 0.00 0.00 0.00 87 1016.6
20260507151606 16 275 3.2 3.2 0.00 0.00 0.00 87 1016.8
20260507151103 16 332 0.0 0.0 0.00 0.00 0.00 87 1016.7
20260507150601 16 238 4.8 4.8 0.00 0.00 0.00 88 1016.5
20260507150057 16 274 4.8 4.8 0.00 0.00 0.00 87 1016.7
20260507145552 16 283 1.6 1.6 0.00 0.00 0.00 89 1016.6
20260507145050 16 278 1.6 1.6 0.00 0.00 0.00 89 1016.5
20260507144546 15 307 3.2 3.2 0.00 0.00 0.00 89 1016.5
20260507144044 15 289 3.2 3.2 0.00 0.00 0.00 89 1016.6
20260507143541 15 256 6.4 8.0 0.00 0.00 0.00 90 1016.4
20260507143039 15 303 4.8 4.8 0.00 0.00 0.00 90 1016.7
20260507142533 15 251 4.8 4.8 0.00 0.00 0.00 90 1016.5
20260507142031 15 256 6.4 8.0 0.00 0.00 0.00 91 1016.4
20260507141527 15 255 4.8 4.8 0.00 0.00 0.00 91 1016.2
20260507141024 15 250 1.6 3.2 0.00 0.00 0.00 91 1016.3
20260507140521 15 214 4.8 4.8 0.00 0.00 0.00 91 1016.2
20260507140018 15 248 4.8 8.0 0.00 0.00 0.00 92 1016.2
20260507135514 15 267 3.2 3.2 0.00 0.00 0.00 92 1016.1
20260507135012 15 222 3.2 4.8 0.00 0.00 0.00 93 1016.0
20260507134508 15 252 4.8 4.8 0.00 0.00 0.00 93 1016.0
20260507134004 15 263 3.2 4.8 0.00 0.00 0.00 93 1015.9
20260507133500 15 254 1.6 1.6 0.00 0.00 0.00 94 1016.2
20260507132959 14 229 3.2 3.2 0.00 0.00 0.00 94 1015.9
20260507132455 15 253 3.2 3.2 0.00 0.00 0.00 94 1015.9
20260507131951 14 299 0.0 0.0 0.00 0.00 0.00 94 1015.9
20260507131448 14 230 0.0 0.0 0.00 0.00 0.00 94 1015.9
20260507130945 14 254 0.0 0.0 0.00 0.00 0.00 94 1016.0
20260507130442 13 251 0.0 0.0 0.00 0.00 0.00 94 1015.9
20260507125941 13 297 0.0 0.0 0.00 0.00 0.00 93 1015.7
20260507125439 15 278 0.0 0.0 0.00 0.00 0.00 93 1015.6
20260507124936 14 266 0.0 0.0 0.00 0.00 0.00 94 1015.7
20260507124432 14 253 0.0 0.0 0.00 0.00 0.00 94 1015.7
20260507123930 13 261 0.0 0.0 0.00 0.00 0.00 93 1015.5
20260507123427 13 291 0.0 0.0 0.00 0.00 0.00 93 1015.6
20260507122923 13 297 0.0 0.0 0.00 0.00 0.00 93 1015.8
20260507122419 13 294 0.0 0.0 0.00 0.00 0.00 93 1015.7
20260507121915 13 305 0.0 0.0 0.00 0.00 0.00 93 1015.8
20260507121411 13 318 0.0 0.0 0.00 0.00 0.00 92 1015.8
20260507120908 13 322 0.0 0.0 0.00 0.00 0.00 92 1015.6
20260507120404 13 321 0.0 0.0 0.00 0.00 0.00 92 1015.8
20260507115900 14 309 0.0 0.0 0.00 0.00 0.00 91 1015.7
20260507115356 14 284 0.0 0.0 0.00 0.00 0.00 91 1015.7
20260507114852 14 308 0.0 0.0 0.00 0.00 0.00 91 1015.6
20260507114349 14 266 0.0 0.0 0.00 0.00 0.00 91 1015.6
20260507113847 14 279 0.0 0.0 0.00 0.00 0.00 91 1015.7
20260507113343 14 283 0.0 0.0 0.00 0.00 0.00 92 1016.1
20260507112841 14 288 0.0 0.0 0.00 0.00 0.00 92 1015.7
20260507112338 14 257 1.6 1.6 0.00 0.00 0.00 92 1015.7
20260507111836 14 294 0.0 1.6 0.00 0.00 0.00 93 1015.8
20260507111332 14 302 0.0 1.6 0.00 0.00 0.00 93 1015.8
20260507110828 14 228 4.8 4.8 0.00 0.00 0.00 93 1015.8
20260507110325 14 268 1.6 3.2 0.00 0.00 0.00 93 1015.7
20260507105822 14 305 0.0 1.6 0.00 0.00 0.00 93 1015.8
20260507105318 14 302 0.0 0.0 0.00 0.00 0.00 93 1016.0
20260507104815 14 294 0.0 0.0 0.00 0.00 0.00 93 1016.0
20260507104311 14 224 1.6 4.8 0.00 0.00 0.00 93 1016.0
20260507103807 14 235 1.6 3.2 0.00 0.00 0.00 93 1016.0
20260507103304 14 311 0.0 0.0 0.00 0.00 0.00 93 1016.0
20260507102801 14 293 0.0 0.0 0.00 0.00 0.00 93 1016.3
20260507102257 14 273 0.0 0.0 0.00 0.00 0.00 94 1016.2
20260507101754 14 256 0.0 0.0 0.00 0.00 0.00 94 1016.2
20260507101248 14 256 0.0 0.0 0.00 0.00 0.00 94 1016.0
20260507100746 14 265 0.0 0.0 0.00 0.00 0.00 94 1016.2
20260507100244 14 303 0.0 0.0 0.00 0.00 0.00 94 1016.1
20260507095742 14 309 0.0 0.0 0.00 0.00 0.00 94 1016.2
20260507095238 15 310 0.0 0.0 0.00 0.00 0.00 94 1016.1
20260507094735 14 311 0.0 0.0 0.00 0.00 0.00 94 1016.3
20260507094232 14 321 0.0 0.0 0.00 0.00 0.00 93 1016.3
20260507093729 15 323 0.0 0.0 0.00 0.00 0.00 93 1016.2
20260507093227 15 303 0.0 0.0 0.00 0.00 0.00 93 1016.3
20260507092725 15 262 0.0 0.0 0.00 0.00 0.00 93 1016.5
20260507092220 15 298 0.0 0.0 0.00 0.00 0.00 93 1016.5
20260507091717 15 309 0.0 0.0 0.00 0.00 0.00 93 1016.6
20260507091214 15 299 0.0 0.0 0.00 0.00 0.00 93 1016.5
20260507090714 15 278 0.0 1.6 0.00 0.00 0.00 93 1016.8
20260507090211 15 297 1.6 1.6 0.00 0.00 0.00 93 1016.7
20260507085708 15 220 1.6 3.2 0.00 0.00 0.00 92 1016.7
20260507085205 15 272 3.2 3.2 0.00 0.00 0.00 92 1016.9
20260507084702 15 268 1.6 1.6 0.00 0.00 0.00 92 1016.6
20260507084158 15 298 3.2 3.2 0.00 0.00 0.00 92 1016.9
20260507083655 15 291 1.6 1.6 0.00 0.00 0.00 91 1016.6
20260507083152 15 243 4.8 4.8 0.00 0.00 0.00 91 1016.9
20260507082648 15 295 1.6 3.2 0.00 0.00 0.00 91 1017.0
20260507082144 15 271 0.0 0.0 0.00 0.00 0.00 90 1017.0
20260507081641 15 250 1.6 3.2 0.00 0.00 0.00 90 1016.9
20260507081138 15 300 4.8 8.0 0.00 0.00 0.00 90 1016.9
20260507080634 15 296 1.6 1.6 0.00 0.00 0.00 89 1016.8
20260507080131 15 290 8.0 9.7 0.00 0.00 0.00 89 1016.9
20260507075631 15 259 3.2 3.2 0.00 0.00 0.00 88 1017.0
20260507075127 15 280 6.4 9.7 0.00 0.00 0.00 88 1017.0
20260507074624 15 247 6.4 11.3 0.00 0.00 0.00 89 1017.0
20260507074123 15 287 4.8 4.8 0.00 0.00 0.00 89 1016.9
20260507073618 15 323 6.4 8.0 0.00 0.00 0.00 89 1017.1
20260507073115 15 287 3.2 4.8 0.00 0.00 0.00 89 1017.1
20260507072613 15 356 8.0 11.3 0.00 0.00 0.00 89 1016.9
20260507072109 15 255 6.4 8.0 0.00 0.00 0.00 89 1017.0
20260507071607 15 251 3.2 3.2 0.00 0.00 0.00 89 1017.0
20260507071103 15 283 8.0 9.7 0.00 0.00 0.00 88 1017.1
20260507070600 15 322 9.7 12.9 0.00 0.00 0.00 88 1017.3
20260507070057 15 197 8.0 9.7 0.00 0.00 0.00 90 1017.0
20260507065553 15 224 6.4 9.7 0.00 0.00 0.00 91 1017.2
20260507065051 15 266 8.0 9.7 0.00 0.00 0.00 92 1017.3
20260507064549 15 261 6.4 8.0 0.00 0.00 0.00 92 1017.1
20260507064047 15 305 3.2 4.8 0.00 0.00 0.00 92 1017.0
20260507063544 15 249 6.4 8.0 0.00 0.00 0.00 92 1017.4
20260507063041 15 297 3.2 3.2 0.00 0.00 0.00 92 1017.3
20260507062538 15 276 4.8 4.8 0.00 0.00 0.00 92 1017.3
20260507062035 15 294 4.8 4.8 0.00 0.00 0.00 92 1017.3
20260507061533 15 299 3.2 3.2 0.00 0.00 0.00 92 1017.4
20260507061031 15 290 6.4 8.0 0.00 0.00 0.00 92 1017.4
20260507060528 15 284 4.8 4.8 0.00 0.00 0.00 92 1017.5
20260507060025 15 302 1.6 3.2 0.00 0.00 0.00 92 1017.3
20260507055520 15 335 4.8 8.0 0.00 0.00 0.00 92 1017.5
20260507055016 15 274 6.4 9.7 0.00 0.00 0.00 92 1017.4
20260507054513 15 275 8.0 9.7 0.00 0.00 0.00 92 1017.5
20260507054009 15 236 1.6 3.2 0.00 0.00 0.00 92 1017.3
20260507053508 15 281 8.0 9.7 0.00 0.00 0.00 92 1017.3
20260507053006 15 262 6.4 9.7 0.00 0.00 0.00 92 1017.1
20260507052504 15 235 4.8 4.8 0.00 0.00 0.00 91 1017.4
20260507052000 15 261 4.8 4.8 0.00 0.00 0.00 91 1017.4
20260507051458 15 275 3.2 4.8 0.00 0.00 0.00 91 1017.5
20260507050954 15 274 4.8 4.8 0.00 0.00 0.00 91 1017.5
20260507050451 15 289 4.8 4.8 0.00 0.00 0.00 90 1017.3
20260507045948 15 310 4.8 8.0 0.00 0.00 0.00 90 1017.4
20260507045444 15 275 4.8 8.0 0.00 0.00 0.00 89 1017.2
20260507044942 15 274 8.0 9.7 0.00 0.00 0.00 89 1017.2
20260507044438 15 243 3.2 3.2 0.00 0.00 0.00 88 1017.2